Time,TemperatureF,DewpointF,PressureIn,WindDirection,WindDirectionDegrees,WindSpeedMPH,WindSpeedGustMPH,Humidity,HourlyPrecipIn,Conditions,Clouds,dailyrainin,SolarRadiationWatts/m^2,SoftwareType,DateUTC
2013-05-20 00:03:00,73.0,71.0,-100.00,East,92,4.0,6.0,92,0.00,,,0.00,0.000000,,2013-05-20 04:03:00,
2013-05-20 00:13:00,73.0,71.0,-100.00,East,92,4.0,6.0,92,0.00,,,0.00,0.000000,,2013-05-20 04:13:00,
2013-05-20 00:23:00,73.0,71.0,-100.00,East,92,4.0,6.0,92,0.00,,,0.00,0.000000,,2013-05-20 04:23:00,
2013-05-20 00:32:00,73.0,71.0,-100.00,East,80,4.0,5.0,94,0.00,,,0.00,0.000000,,2013-05-20 04:32:00,
2013-05-20 00:53:00,73.0,71.0,-100.00,East,80,4.0,5.0,94,0.00,,,0.00,0.000000,,2013-05-20 04:53:00,
2013-05-20 01:02:00,73.0,71.0,-100.00,East,80,4.0,5.0,94,0.00,,,0.00,0.000000,,2013-05-20 05:02:00,
2013-05-20 01:12:00,73.0,71.0,-100.00,East,80,4.0,5.0,94,0.00,,,0.00,0.000000,,2013-05-20 05:12:00,
2013-05-20 01:22:00,73.0,71.0,-100.00,East,80,4.0,5.0,94,0.00,,,0.00,0.000000,,2013-05-20 05:22:00,
2013-05-20 01:32:00,72.0,71.0,-100.00,ENE,71,2.0,4.0,96,0.00,,,0.00,0.000000,,2013-05-20 05:32:00,
2013-05-20 01:52:00,72.0,71.0,-100.00,ENE,71,2.0,4.0,96,0.00,,,0.00,0.000000,,2013-05-20 05:52:00,
2013-05-20 02:01:00,72.0,71.0,-100.00,ENE,71,2.0,4.0,96,0.00,,,0.00,0.000000,,2013-05-20 06:01:00,
2013-05-20 02:11:00,72.0,71.0,-100.00,ENE,71,2.0,4.0,96,0.00,,,0.00,0.000000,,2013-05-20 06:11:00,
2013-05-20 02:21:00,72.0,71.0,-100.00,ENE,71,2.0,4.0,96,0.00,,,0.00,0.000000,,2013-05-20 06:21:00,
2013-05-20 02:32:00,71.0,70.0,-100.00,NW,304,2.0,3.0,97,0.00,,,0.00,0.000000,,2013-05-20 06:32:00,
2013-05-20 02:52:00,71.0,70.0,-100.00,NW,304,2.0,3.0,97,0.00,,,0.00,0.000000,,2013-05-20 06:52:00,
2013-05-20 03:02:00,71.0,70.0,-100.00,NW,304,2.0,3.0,97,0.00,,,0.00,0.000000,,2013-05-20 07:02:00,
2013-05-20 03:12:00,71.0,70.0,-100.00,NW,304,2.0,3.0,97,0.00,,,0.00,0.000000,,2013-05-20 07:12:00,
2013-05-20 03:21:00,71.0,70.0,-100.00,NW,304,2.0,3.0,97,0.00,,,0.00,0.000000,,2013-05-20 07:21:00,
2013-05-20 03:32:00,71.0,70.0,-100.00,NE,36,2.0,4.0,98,0.00,,,0.00,0.000000,,2013-05-20 07:32:00,
2013-05-20 03:52:00,71.0,70.0,-100.00,NE,36,2.0,4.0,98,0.00,,,0.00,0.000000,,2013-05-20 07:52:00,
2013-05-20 04:01:00,71.0,70.0,-100.00,NE,36,2.0,4.0,98,0.00,,,0.00,0.000000,,2013-05-20 08:01:00,
2013-05-20 04:11:00,71.0,70.0,-100.00,NE,36,2.0,4.0,98,0.00,,,0.00,0.000000,,2013-05-20 08:11:00,
2013-05-20 04:21:00,71.0,70.0,-100.00,NE,36,2.0,4.0,98,0.00,,,0.00,0.000000,,2013-05-20 08:21:00,
2013-05-20 04:32:00,71.0,70.0,-100.00,NNE,12,3.0,4.0,98,0.00,,,0.00,0.000000,,2013-05-20 08:32:00,
2013-05-20 04:52:00,71.0,70.0,-100.00,NNE,12,3.0,4.0,98,0.00,,,0.00,0.000000,,2013-05-20 08:52:00,
2013-05-20 05:02:00,71.0,70.0,-100.00,NNE,12,3.0,4.0,98,0.00,,,0.00,0.000000,,2013-05-20 09:02:00,
2013-05-20 05:12:00,71.0,70.0,-100.00,NNE,12,3.0,4.0,98,0.00,,,0.00,0.000000,,2013-05-20 09:12:00,
2013-05-20 05:22:00,71.0,70.0,-100.00,NNE,12,3.0,4.0,98,0.00,,,0.00,0.000000,,2013-05-20 09:22:00,
2013-05-20 05:32:00,71.0,70.0,-100.00,ENE,60,3.0,5.0,98,0.00,,,0.00,0.000000,,2013-05-20 09:32:00,
2013-05-20 05:53:00,71.0,70.0,-100.00,ENE,60,3.0,5.0,98,0.00,,,0.00,0.000000,,2013-05-20 09:53:00,
2013-05-20 06:03:00,71.0,70.0,-100.00,ENE,60,3.0,5.0,98,0.00,,,0.00,0.000000,,2013-05-20 10:03:00,
2013-05-20 06:12:00,71.0,70.0,-100.00,ENE,60,3.0,5.0,98,0.00,,,0.00,0.000000,,2013-05-20 10:12:00,
2013-05-20 06:22:00,71.0,70.0,-100.00,ENE,60,3.0,5.0,98,0.00,,,0.00,0.000000,,2013-05-20 10:22:00,
2013-05-20 06:32:00,71.0,71.0,-100.00,NNW,332,2.0,5.0,99,0.00,,,0.00,0.000000,,2013-05-20 10:32:00,
2013-05-20 06:52:00,71.0,71.0,-100.00,NNW,332,2.0,5.0,99,0.00,,,0.00,0.000000,,2013-05-20 10:52:00,
2013-05-20 07:03:00,71.0,71.0,-100.00,NNW,332,2.0,5.0,99,0.00,,,0.00,0.000000,,2013-05-20 11:03:00,
2013-05-20 07:12:00,71.0,71.0,-100.00,NNW,332,2.0,5.0,99,0.00,,,0.00,0.000000,,2013-05-20 11:12:00,
2013-05-20 07:22:00,71.0,71.0,-100.00,NNW,332,2.0,5.0,99,0.00,,,0.00,0.000000,,2013-05-20 11:22:00,
2013-05-20 07:32:00,72.0,72.0,-100.00,North,7,2.0,4.0,99,0.00,,,0.00,21.000000,,2013-05-20 11:32:00,
2013-05-20 07:52:00,72.0,72.0,-100.00,North,7,2.0,4.0,99,0.00,,,0.00,21.000000,,2013-05-20 11:52:00,
2013-05-20 08:01:00,72.0,72.0,-100.00,North,7,2.0,4.0,99,0.00,,,0.00,21.000000,,2013-05-20 12:01:00,
2013-05-20 08:12:00,72.0,72.0,-100.00,North,7,2.0,4.0,99,0.00,,,0.00,21.000000,,2013-05-20 12:12:00,
2013-05-20 08:21:00,72.0,72.0,-100.00,North,7,2.0,4.0,99,0.00,,,0.00,21.000000,,2013-05-20 12:21:00,
2013-05-20 08:32:00,74.0,73.0,-100.00,NNE,13,1.0,3.0,98,0.00,,,0.00,74.000000,,2013-05-20 12:32:00,
2013-05-20 08:52:00,74.0,73.0,-100.00,NNE,13,1.0,3.0,98,0.00,,,0.00,74.000000,,2013-05-20 12:52:00,
2013-05-20 09:01:00,74.0,73.0,-100.00,NNE,13,1.0,3.0,98,0.00,,,0.00,74.000000,,2013-05-20 13:01:00,
2013-05-20 09:11:00,74.0,73.0,-100.00,NNE,13,1.0,3.0,98,0.00,,,0.00,74.000000,,2013-05-20 13:11:00,
2013-05-20 09:22:00,74.0,73.0,-100.00,NNE,13,1.0,3.0,98,0.00,,,0.00,74.000000,,2013-05-20 13:22:00,
2013-05-20 09:32:00,80.0,77.0,-100.00,ENE,68,4.0,5.0,92,0.00,,,0.00,250.000000,,2013-05-20 13:32:00,
2013-05-20 09:52:00,80.0,77.0,-100.00,ENE,68,4.0,5.0,92,0.00,,,0.00,250.000000,,2013-05-20 13:52:00,
2013-05-20 10:01:00,80.0,77.0,-100.00,ENE,68,4.0,5.0,92,0.00,,,0.00,250.000000,,2013-05-20 14:01:00,
2013-05-20 10:11:00,80.0,77.0,-100.00,ENE,68,4.0,5.0,92,0.00,,,0.00,250.000000,,2013-05-20 14:11:00,
2013-05-20 10:22:00,80.0,77.0,-100.00,ENE,68,4.0,5.0,92,0.00,,,0.00,250.000000,,2013-05-20 14:22:00,
2013-05-20 10:32:00,81.0,71.0,-100.00,SE,133,7.0,14.0,71,0.00,,,0.00,377.000000,,2013-05-20 14:32:00,
2013-05-20 10:52:00,81.0,71.0,-100.00,SE,133,7.0,14.0,71,0.00,,,0.00,377.000000,,2013-05-20 14:52:00,
2013-05-20 11:01:00,81.0,71.0,-100.00,SE,133,7.0,14.0,71,0.00,,,0.00,377.000000,,2013-05-20 15:01:00,
2013-05-20 11:12:00,81.0,71.0,-100.00,SE,133,7.0,14.0,71,0.00,,,0.00,377.000000,,2013-05-20 15:12:00,
2013-05-20 11:22:00,81.0,71.0,-100.00,SE,133,7.0,14.0,71,0.00,,,0.00,377.000000,,2013-05-20 15:22:00,
2013-05-20 11:32:00,83.0,70.0,-100.00,ESE,114,9.0,15.0,66,0.00,,,0.00,776.000000,,2013-05-20 15:32:00,
2013-05-20 11:53:00,83.0,70.0,-100.00,ESE,114,9.0,15.0,66,0.00,,,0.00,776.000000,,2013-05-20 15:53:00,
2013-05-20 12:03:00,83.0,70.0,-100.00,ESE,114,9.0,15.0,66,0.00,,,0.00,776.000000,,2013-05-20 16:03:00,
2013-05-20 12:13:00,83.0,70.0,-100.00,ESE,114,9.0,15.0,66,0.00,,,0.00,776.000000,,2013-05-20 16:13:00,
2013-05-20 12:23:00,83.0,70.0,-100.00,ESE,114,9.0,15.0,66,0.00,,,0.00,776.000000,,2013-05-20 16:23:00,
2013-05-20 12:32:00,83.0,72.0,-100.00,ESE,111,13.0,21.0,69,0.00,,,0.00,637.000000,,2013-05-20 16:32:00,
2013-05-20 12:53:00,83.0,72.0,-100.00,ESE,111,13.0,21.0,69,0.00,,,0.00,637.000000,,2013-05-20 16:53:00,
2013-05-20 13:03:00,83.0,72.0,-100.00,ESE,111,13.0,21.0,69,0.00,,,0.00,637.000000,,2013-05-20 17:03:00,
2013-05-20 13:12:00,83.0,72.0,-100.00,ESE,111,13.0,21.0,69,0.00,,,0.00,637.000000,,2013-05-20 17:12:00,
2013-05-20 13:22:00,83.0,72.0,-100.00,ESE,111,13.0,21.0,69,0.00,,,0.00,637.000000,,2013-05-20 17:22:00,
2013-05-20 13:32:00,80.0,69.0,-100.00,ESE,102,11.0,18.0,70,0.00,,,0.00,407.000000,,2013-05-20 17:32:00,
2013-05-20 13:53:00,80.0,69.0,-100.00,ESE,102,11.0,18.0,70,0.00,,,0.00,407.000000,,2013-05-20 17:53:00,
2013-05-20 14:02:00,80.0,69.0,-100.00,ESE,102,11.0,18.0,70,0.00,,,0.00,407.000000,,2013-05-20 18:02:00,
2013-05-20 14:12:00,80.0,69.0,-100.00,ESE,102,11.0,18.0,70,0.00,,,0.00,407.000000,,2013-05-20 18:12:00,
2013-05-20 14:23:00,80.0,69.0,-100.00,ESE,102,11.0,18.0,70,0.00,,,0.00,407.000000,,2013-05-20 18:23:00,
2013-05-20 14:32:00,80.0,73.0,-100.00,NE,55,9.0,14.0,78,0.00,,,0.00,250.000000,,2013-05-20 18:32:00,
2013-05-20 14:55:00,80.0,73.0,-100.00,NE,55,9.0,14.0,78,0.00,,,0.00,250.000000,,2013-05-20 18:55:00,
2013-05-20 15:04:00,80.0,73.0,-100.00,NE,55,9.0,14.0,78,0.00,,,0.00,250.000000,,2013-05-20 19:04:00,
2013-05-20 15:11:00,80.0,73.0,-100.00,NE,55,9.0,14.0,78,0.00,,,0.00,250.000000,,2013-05-20 19:11:00,
2013-05-20 15:21:00,80.0,73.0,-100.00,NE,55,9.0,14.0,78,0.00,,,0.00,250.000000,,2013-05-20 19:21:00,
2013-05-20 15:32:00,74.0,68.0,-100.00,SSE,154,7.0,23.0,82,0.00,,,0.00,100.000000,,2013-05-20 19:32:00,
2013-05-20 15:53:00,74.0,68.0,-100.00,SSE,154,7.0,23.0,82,0.00,,,0.00,100.000000,,2013-05-20 19:53:00,
2013-05-20 16:02:00,74.0,68.0,-100.00,SSE,154,7.0,23.0,82,0.00,,,0.00,100.000000,,2013-05-20 20:02:00,
2013-05-20 16:12:00,74.0,68.0,-100.00,SSE,154,7.0,23.0,82,0.00,,,0.00,100.000000,,2013-05-20 20:12:00,
2013-05-20 16:21:00,74.0,68.0,-100.00,SSE,154,7.0,23.0,82,0.00,,,0.00,100.000000,,2013-05-20 20:21:00,
2013-05-20 16:32:00,75.0,72.0,-100.00,ESE,104,7.0,15.0,89,0.00,,,0.00,78.000000,,2013-05-20 20:32:00,
2013-05-20 16:52:00,75.0,72.0,-100.00,ESE,104,7.0,15.0,89,0.00,,,0.00,78.000000,,2013-05-20 20:52:00,
2013-05-20 17:01:00,75.0,72.0,-100.00,ESE,104,7.0,15.0,89,0.00,,,0.00,78.000000,,2013-05-20 21:01:00,
2013-05-20 17:11:00,75.0,72.0,-100.00,ESE,104,7.0,15.0,89,0.00,,,0.00,78.000000,,2013-05-20 21:11:00,
2013-05-20 17:22:00,75.0,72.0,-100.00,ESE,104,7.0,15.0,89,0.00,,,0.00,78.000000,,2013-05-20 21:22:00,
2013-05-20 17:32:00,75.0,69.0,-100.00,ENE,65,6.0,10.0,81,0.00,,,0.00,67.000000,,2013-05-20 21:32:00,
2013-05-20 17:53:00,75.0,69.0,-100.00,ENE,65,6.0,10.0,81,0.00,,,0.00,67.000000,,2013-05-20 21:53:00,
2013-05-20 18:02:00,75.0,69.0,-100.00,ENE,65,6.0,10.0,81,0.00,,,0.00,67.000000,,2013-05-20 22:02:00,
2013-05-20 18:13:00,75.0,69.0,-100.00,ENE,65,6.0,10.0,81,0.00,,,0.00,67.000000,,2013-05-20 22:13:00,
2013-05-20 18:23:00,75.0,69.0,-100.00,ENE,65,6.0,10.0,81,0.00,,,0.00,67.000000,,2013-05-20 22:23:00,
2013-05-20 18:32:00,75.0,68.0,-100.00,East,93,6.0,8.0,80,0.00,,,0.00,54.000000,,2013-05-20 22:32:00,
2013-05-20 18:53:00,75.0,68.0,-100.00,East,93,6.0,8.0,80,0.00,,,0.00,54.000000,,2013-05-20 22:53:00,
2013-05-20 19:03:00,75.0,68.0,-100.00,East,93,6.0,8.0,80,0.00,,,0.00,54.000000,,2013-05-20 23:03:00,
2013-05-20 19:12:00,75.0,68.0,-100.00,East,93,6.0,8.0,80,0.00,,,0.00,54.000000,,2013-05-20 23:12:00,
2013-05-20 19:22:00,75.0,68.0,-100.00,East,93,6.0,8.0,80,0.00,,,0.00,54.000000,,2013-05-20 23:22:00,
2013-05-20 19:32:00,75.0,71.0,-100.00,East,85,5.0,9.0,88,0.00,,,0.00,31.000000,,2013-05-20 23:32:00,
2013-05-20 19:53:00,75.0,71.0,-100.00,East,85,5.0,9.0,88,0.00,,,0.00,31.000000,,2013-05-20 23:53:00,
2013-05-20 20:01:00,75.0,71.0,-100.00,East,85,5.0,9.0,88,0.00,,,0.00,31.000000,,2013-05-21 00:01:00,
2013-05-20 20:11:00,75.0,71.0,-100.00,East,85,5.0,9.0,88,0.00,,,0.00,31.000000,,2013-05-21 00:11:00,
2013-05-20 20:22:00,75.0,71.0,-100.00,East,85,5.0,9.0,88,0.00,,,0.00,31.000000,,2013-05-21 00:22:00,
2013-05-20 20:32:00,74.0,72.0,-100.00,North,359,4.0,6.0,92,0.00,,,0.00,3.000000,,2013-05-21 00:32:00,
2013-05-20 20:52:00,74.0,72.0,-100.00,North,359,4.0,6.0,92,0.00,,,0.00,3.000000,,2013-05-21 00:52:00,
2013-05-20 21:01:00,74.0,72.0,-100.00,North,359,4.0,6.0,92,0.00,,,0.00,3.000000,,2013-05-21 01:01:00,
2013-05-20 21:12:00,74.0,72.0,-100.00,North,359,4.0,6.0,92,0.00,,,0.00,3.000000,,2013-05-21 01:12:00,
2013-05-20 21:22:00,74.0,72.0,-100.00,North,359,4.0,6.0,92,0.00,,,0.00,3.000000,,2013-05-21 01:22:00,
2013-05-20 21:32:00,73.0,71.0,-100.00,NNE,21,1.0,5.0,94,0.00,,,0.00,0.000000,,2013-05-21 01:32:00,
2013-05-20 21:53:00,73.0,71.0,-100.00,NNE,21,1.0,5.0,94,0.00,,,0.00,0.000000,,2013-05-21 01:53:00,
2013-05-20 22:02:00,73.0,71.0,-100.00,NNE,21,1.0,5.0,94,0.00,,,0.00,0.000000,,2013-05-21 02:02:00,
2013-05-20 22:11:00,73.0,71.0,-100.00,NNE,21,1.0,5.0,94,0.00,,,0.00,0.000000,,2013-05-21 02:11:00,
2013-05-20 22:21:00,73.0,71.0,-100.00,NNE,21,1.0,5.0,94,0.00,,,0.00,0.000000,,2013-05-21 02:21:00,
2013-05-20 22:32:00,72.0,70.0,-100.00,SE,137,7.0,13.0,93,0.00,,,0.00,0.000000,,2013-05-21 02:32:00,
2013-05-20 22:52:00,72.0,70.0,-100.00,SE,137,7.0,13.0,93,0.00,,,0.00,0.000000,,2013-05-21 02:52:00,
2013-05-20 23:02:00,72.0,70.0,-100.00,SE,137,7.0,13.0,93,0.00,,,0.00,0.000000,,2013-05-21 03:02:00,
2013-05-20 23:11:00,72.0,70.0,-100.00,SE,137,7.0,13.0,93,0.00,,,0.00,0.000000,,2013-05-21 03:11:00,
2013-05-20 23:21:00,72.0,70.0,-100.00,SE,137,7.0,13.0,93,0.00,,,0.00,0.000000,,2013-05-21 03:21:00,
2013-05-20 23:32:00,70.0,69.0,-100.00,ESE,102,5.0,13.0,96,0.00,,,-99.99,0.000000,,2013-05-21 03:32:00,
2013-05-20 23:54:00,70.0,69.0,-100.00,ESE,102,5.0,13.0,96,0.00,,,-99.99,0.000000,,2013-05-21 03:54:00,